CW9114 Weather Reports


Display with metric or nautical units.
time (UTC)temp
F
wind
direction
speed
MPH
gust
MPH
rain 1hr
in
rain 24hr
in
rain mn
in
humidity
%
barometer
mb
20260906193026 74 172 0.0 3.0 0.00 0.01 0.01 56 1020.6
20260906191526 74 16 0.0 5.0 0.00 0.01 0.01 57 1020.6
20260906190032 75 202 0.0 2.0 0.00 0.01 0.01 53 1020.9
20260906184513 75 162 0.0 6.0 0.00 0.01 0.01 49 1020.9
20260906183026 76 66 0.0 4.0 0.00 0.01 0.01 51 1021.0
20260906181549 76 28 1.0 4.0 0.00 0.01 0.01 50 1021.1
20260906180007 76 140 1.0 4.0 0.00 0.01 0.01 51 1021.2
20260906174514 76 131 0.0 4.0 0.00 0.01 0.01 52 1021.3
20260906173025 76 70 1.0 4.0 0.00 0.01 0.01 57 1021.4
20260906171532 75 203 0.0 7.0 0.00 0.01 0.01 61 1021.4
20260906170026 75 30 1.0 4.0 0.00 0.01 0.01 61 1021.4
20260906164508 75 27 0.0 3.0 0.00 0.01 0.01 62 1021.2
20260906163020 74 34 1.0 7.0 0.00 0.01 0.01 64 1021.4
20260906161518 74 66 0.0 4.0 0.00 0.01 0.01 68 1021.4
20260906160025 72 106 0.0 2.0 0.00 0.01 0.01 73 1021.2
20260906154530 70 86 0.0 3.0 0.00 0.01 0.01 73 1021.4
20260906153010 68 169 0.0 4.0 0.00 0.01 0.01 80 1021.4
20260906151517 66 171 0.0 0.0 0.00 0.01 0.01 85 1021.5
20260906150029 64 172 0.0 1.0 0.00 0.01 0.01 93 1021.5
20260906144528 63 171 0.0 1.0 0.00 0.01 0.01 97 1021.4
20260906143007 62 206 0.0 4.0 0.00 0.01 0.01 97 1021.4
20260906141511 61 17 0.0 1.0 0.00 0.01 0.01 97 1021.6
20260906140022 59 20 0.0 0.0 0.00 0.01 0.01 97 1021.5
20260906134527 57 360 0.0 0.0 0.00 0.01 0.01 97 1021.6
20260906133036 55 28 0.0 0.0 0.00 0.01 0.01 97 1021.4
20260906131509 54 20 0.0 0.0 0.01 0.01 0.01 97 1021.5
20260906130014 53 20 0.0 0.0 0.01 0.01 0.01 97 1021.7
20260906124520 52 360 0.0 0.0 0.01 0.01 0.01 97 1021.7
20260906123033 52 360 0.0 0.0 0.01 0.01 0.01 96 1021.5
20260906121532 51 360 0.0 0.0 0.00 0.00 0.00 96 1021.4
20260906120012 51 360 0.0 0.0 0.00 0.00 0.00 96 1021.4
20260906114533 50 360 0.0 0.0 0.00 0.00 0.00 96 1021.3
20260906113027 50 32 0.0 0.0 0.00 0.00 0.00 96 1021.0
20260906111531 50 360 0.0 0.0 0.00 0.00 0.00 96 1021.0
20260906110034 50 26 0.0 0.0 0.00 0.00 0.00 95 1020.7
20260906104514 50 25 0.0 0.0 0.00 0.00 0.00 95 1020.9
20260906103018 50 25 0.0 0.0 0.00 0.00 0.00 95 1020.7
20260906101524 50 25 0.0 0.0 0.00 0.00 0.00 95 1020.7
20260906100032 50 25 0.0 0.0 0.00 0.00 0.00 95 1020.8
20260906094531 50 25 0.0 0.0 0.00 0.00 0.00 95 1020.9
20260906093014 51 25 0.0 0.0 0.00 0.00 0.00 95 1020.9
20260906091524 51 25 0.0 0.0 0.00 0.00 0.00 95 1020.9
20260906090028 51 24 0.0 0.0 0.00 0.00 0.00 95 1020.8
20260906084533 51 24 0.0 0.0 0.00 0.00 0.00 95 1020.8
20260906083032 51 24 0.0 0.0 0.00 0.00 0.00 95 1020.7
20260906081517 51 24 0.0 0.0 0.00 0.00 0.00 95 1020.6
20260906080024 51 360 0.0 0.0 0.00 0.00 0.00 95 1020.6
20260906074527 52 360 0.0 0.0 0.00 0.00 0.00 95 1020.5
20260906073041 52 32 0.0 0.0 0.00 0.00 0.00 95 1020.6
20260906071533 52 32 0.0 0.0 0.00 0.00 0.00 95 1020.4
20260906070019 52 31 0.0 0.0 0.00 0.00 0.00 95 1020.3
20260906064529 52 32 0.0 0.0 0.00 0.00 0.00 94 1020.3
20260906063031 53 34 0.0 0.0 0.00 0.00 0.00 94 1020.2
20260906061534 53 34 0.0 0.0 0.00 0.00 0.00 94 1020.2
20260906060015 53 34 0.0 0.0 0.00 0.00 0.00 94 1020.2
20260906054524 53 29 0.0 0.0 0.00 0.00 0.00 94 1020.1
20260906053004 54 29 0.0 0.0 0.00 0.00 0.00 94 1019.8
20260906051512 54 360 0.0 0.0 0.00 0.00 0.00 94 1019.9
20260906050016 54 360 0.0 0.0 0.00 0.00 0.00 94 1019.9
20260906044518 55 360 0.0 0.0 0.00 0.00 0.00 94 1019.8
20260906043026 55 26 0.0 0.0 0.00 0.00 0.00 94 1019.9
20260906041504 55 27 0.0 0.0 0.00 0.00 0.00 94 1019.8
20260906040021 56 26 0.0 0.0 0.00 0.00 0.00 93 1019.6
20260906034513 56 27 0.0 0.0 0.00 0.00 0.00 93 1019.5
20260906033020 56 27 0.0 0.0 0.00 0.00 0.00 93 1019.4
20260906031546 57 29 0.0 0.0 0.00 0.00 0.00 93 1019.4
20260906030006 57 360 0.0 0.0 0.00 0.00 0.00 92 1019.3
20260906024508 58 27 0.0 0.0 0.00 0.00 0.00 92 1019.4
20260906023016 58 27 0.0 0.0 0.00 0.00 0.00 92 1019.3
20260906021522 59 27 0.0 0.0 0.00 0.00 0.00 92 1019.3
20260906020027 59 360 0.0 0.0 0.00 0.00 0.00 92 1019.3
20260906014511 60 30 0.0 0.0 0.00 0.00 0.00 92 1019.4
20260906013014 60 31 0.0 0.0 0.00 0.00 0.00 92 1019.4
20260906011523 61 28 0.0 0.0 0.00 0.00 0.00 91 1019.3
20260906010026 62 28 0.0 0.0 0.00 0.00 0.00 91 1019.3
20260906004530 62 30 0.0 0.0 0.00 0.00 0.00 90 1019.3
20260906003010 63 25 0.0 0.0 0.00 0.00 0.00 88 1019.4
20260906001514 64 39 0.0 0.0 0.00 0.00 0.00 87 1019.4
20260906000022 65 28 0.0 0.0 0.00 0.00 0.00 85 1019.3
20260905234531 66 34 0.0 0.0 0.00 0.00 0.00 84 1019.1
20260905233035 67 360 0.0 0.0 0.00 0.00 0.00 83 1019.1
20260905231510 68 30 0.0 2.0 0.00 0.00 0.00 80 1019.5
20260905230018 69 360 0.0 4.0 0.00 0.00 0.00 78 1019.3
20260905224524 69 54 0.0 4.0 0.00 0.00 0.00 76 1019.4
20260905223031 70 77 0.0 5.0 0.00 0.00 0.00 71 1019.4
20260905221531 70 360 0.0 3.0 0.00 0.00 0.00 75 1019.1
20260905220014 71 66 1.0 3.0 0.00 0.00 0.00 72 1019.2
20260905214523 71 30 0.0 5.0 0.00 0.00 0.00 71 1019.2
20260905213027 71 79 0.0 2.0 0.00 0.00 0.00 73 1019.2
20260905211530 71 30 0.0 4.0 0.00 0.00 0.00 72 1019.2
20260905210032 71 88 1.0 6.0 0.00 0.00 0.00 71 1018.9
20260905204516 72 41 0.0 6.0 0.00 0.00 0.00 72 1018.8
20260905203034 72 23 1.0 6.0 0.00 0.00 0.00 68 1018.8
20260905201530 72 52 1.0 4.0 0.00 0.00 0.00 69 1019.2
20260905200037 73 71 1.0 5.0 0.00 0.00 0.00 66 1019.2
20260905194534 73 255 1.0 7.0 0.00 0.00 0.00 64 1019.4